SCP
1 1 1 1 1 2 2 2 2 1 1 1 1 1 0 0 0 0 0 0 0 0 0 0 0 0 0 0 0 0 0 0 0 0 0 0 0 0 0 0 0 0 0
1 1 1 1 1 1 1 1 1 1 1 1 1 1 0 0 0 0 0 0 0 0 0 0 0 0 0 0 0 0 0 0 0 0 0 0 0 0 0 0 0 0 0
1 1 1 1 1 1 1 1 1 1 1 1 1 0 0 0 0 0 0 0 0 0 0 0 0 0 0 0 0 0 0 0 0 0 0 0 0 0 0 0 0 0 0
1 1 1 1 1 1 1 1 1 1 1 1 0 0 0 0 0 0 0 0 0 0 0 0 0 0 0 0 0 0 0 0 0 0 0 0 0 0 0 0 0 0 0
1 1 1 1 1 1 1 1 1 1 1 1 0 0 0 0 0 0 0 0 0 0 0 0 0 0 0 0 0 0 0 0 0 0 0 0 0 0 0 0 0 0 0
1 1 1 1 1 1 1 1 1 1 1 0 0 0 0 0 0 0 0 0 0 0 0 0 0 0 0 0 0 0 0 0 0 0 0 0 0 0 0 0 0 0 0
1 1 1 1 1 1 1 1 1 1 1 0 0 0 0 0 0 0 0 0 0 0 0 0 0 0 0 0 0 0 0 0 0 0 0 0 0 0 0 0 0 0 0
0 1 1 1 1 1 1 1 1 1 1 0 0 0 0 0 0 0 0 0 0 0 0 0 0 0 0 0 0 0 0 0 0 0 0 0 0 0 0 0 0 0 0
0 1 1 1 1 1 1 1 1 1 1 1 1 1 1 0 0 0 0 0 0 0 0 0 0 0 0 0 0 0 0 0 0 0 0 0 0 0 0 0 0 0 0
0 0 1 1 1 1 1 1 1 1 1 1 1 1 1 1 1 1 0 0 0 0 0 0 0 0 0 0 0 0 0 0 0 0 0 0 0 -0 -0 0 0 0 0
0 0 1 1 1 1 1 1 1 1 1 1 1 1 1 1 1 1 1 1 1 1 1 0 0 0 0 0 0 0 0 0 0 0 0 0 0 0 0 0 0 0 0
0 0 1 1 1 1 1 1 1 1 1 1 1 1 1 1 1 1 1 1 1 1 1 1 0 0 0 0 0 0 0 0 0 0 0 0 0 0 0 0 0 0 0
1 1 1 1 1 1 1 1 1 1 1 1 1 1 1 1 1 1 1 1 1 1 1 1 1 0 0 0 0 0 0 0 0 0 0 0 0 0 0 0 0 0 0
1 1 1 1 1 1 1 1 1 1 1 1 1 2 2 2 2 2 2 2 1 1 1 1 1 1 0 0 0 0 0 0 0 0 0 0 0 0 0 0 0 0 0
1 1 1 2 2 2 2 1 1 1 2 2 2 2 2 2 2 2 2 2 2 1 1 1 1 1 1 0 0 0 1 1 1 1 1 0 0 0 0 0 0 0 0
1 1 2 2 2 2 2 2 2 2 2 2 2 3 3 3 2 2 2 2 2 2 1 1 1 1 1 0 0 0 1 1 1 1 1 1 0 0 0 0 0 0 0
1 2 2 2 2 2 2 2 2 2 2 3 3 3 3 3 2 2 2 2 2 2 2 1 1 1 1 0 0 0 0 1 1 1 1 1 1 0 0 0 0 0 0
1 2 2 2 2 2 2 2 2 2 2 3 3 3 3 2 2 2 2 2 2 2 2 1 1 1 1 0 0 0 0 0 1 1 1 1 1 1 1 0 0 0 0
1 1 2 2 2 2 2 2 2 2 2 2 2 2 2 2 2 2 2 2 2 2 2 2 1 1 1 1 0 0 0 0 0 1 1 1 1 1 0 0 1 1 1
1 1 1 1 2 2 2 1 1 1 1 1 1 1 1 1 2 2 2 2 2 2 1 1 1 1 1 1 0 0 0 0 0 0 0 0 0 0 0 0 0 1 1
1 1 1 1 1 1 1 1 1 1 1 1 1 1 1 1 1 1 1 1 1 1 1 1 1 1 1 1 0 0 0 0 0 0 0 0 0 0 0 0 0 0 0
1 1 1 1 1 1 1 1 1 1 1 1 1 1 1 1 1 1 1 1 1 1 1 1 1 1 1 0 0 0 0 0 0 0 0 0 0 0 0 0 0 0 0
0 0 0 0 0 0 0 0 0 0 0 0 0 0 0 0 0 0 0 0 0 0 0 0 0 0 0 0 0 0 0 0 0 0 0 0 0 0 0 0 0 0 0
0 0 0 0 0 0 0 0 0 0 0 0 0 0 0 0 0 0 0 0 0 0 0 0 0 0 0 0 0 0 0 0 0 0 0 0 0 0 0 0 0 0 0
0 0 0 0 0 0 0 0 0 0 0 0 0 0 0 0 0 0 0 0 0 0 0 0 0 0 0 0 0 0 0 0 0 0 0 0 0 0 0 0 0 0 0
0 0 0 0 0 0 0 0 0 0 0 0 0 0 0 0 0 0 0 0 0 0 0 0 0 0 0 0 0 0 0 0 0 0 0 0 0 0 0 0 0 0 0
Wind_Speed
11 11 11 11 11 10 9 10 9 8 6 4 4 4 3 3 4 5 6 4 3 3 2 3 1 2 4 3 3 2 2 1 1 2 1 2 3 2 1 0 1 1 1
12 12 12 12 12 11 11 10 9 9 8 5 4 3 4 3 3 5 5 4 4 3 3 2 1 3 3 3 2 2 3 2 2 2 2 1 2 0 2 1 1 2 2
13 13 13 13 12 12 12 11 10 10 8 7 4 4 3 2 3 6 4 4 4 2 2 2 2 1 1 3 1 2 2 3 1 2 2 2 2 1 2 1 2 1 1
12 13 12 13 13 12 12 11 11 10 8 8 7 7 6 5 5 5 5 5 4 4 4 3 2 1 1 2 1 3 3 2 2 1 1 2 1 1 1 0 2 2 2
13 14 13 13 12 13 12 12 11 10 9 8 7 6 5 4 4 5 7 6 5 4 4 4 3 1 0 3 3 2 3 3 3 3 1 1 1 2 1 0 1 1 2
13 14 14 12 11 12 12 12 12 10 9 9 8 7 6 4 5 6 7 5 5 5 5 5 4 3 2 3 2 0 0 1 3 3 3 2 1 2 2 2 1 1 2
12 13 14 13 12 13 13 13 13 11 11 10 8 8 6 4 4 5 6 5 5 5 6 6 5 3 3 3 2 2 0 1 1 2 3 3 3 2 2 2 3 2 1
12 13 14 14 13 13 13 13 13 11 11 10 8 7 7 5 5 6 4 5 4 5 8 6 6 4 4 4 3 2 3 2 1 2 1 2 3 2 2 1 2 3 3
12 13 14 14 13 13 13 13 13 12 11 11 9 8 8 7 5 6 5 4 3 5 8 7 6 5 5 3 3 3 2 2 2 3 3 2 2 2 2 2 1 2 3
12 13 14 14 13 13 12 12 12 11 11 10 10 10 8 7 5 5 6 5 4 4 7 7 6 6 5 5 4 4 4 3 3 3 2 1 3 2 1 1 2 2 2
12 12 12 13 14 14 13 12 12 11 11 11 10 8 9 9 7 6 6 5 4 5 6 6 6 6 6 6 5 5 4 5 4 4 4 4 3 3 3 2 2 2 2
10 12 13 13 13 14 14 12 12 12 11 10 9 8 8 8 9 8 7 6 6 6 6 6 6 7 7 7 7 7 6 5 6 5 5 4 4 5 4 3 4 3 3
9 11 12 12 12 12 12 13 13 13 13 11 10 10 9 9 9 9 8 8 7 7 8 8 7 7 7 7 7 7 6 6 6 6 6 6 5 5 4 4 4 3 4
7 7 8 9 9 10 10 11 12 12 12 12 12 11 11 10 9 9 8 9 8 8 8 8 8 8 7 7 7 7 7 7 6 6 6 6 6 6 6 6 6 5 5
6 5 6 6 6 7 8 8 9 9 9 10 10 10 10 9 9 8 9 9 9 10 8 7 8 8 8 9 9 8 9 8 7 7 7 8 9 9 7 7 5 5 5
5 4 4 5 4 4 5 6 5 5 6 6 7 7 8 8 8 8 8 8 8 8 8 8 8 9 9 10 12 9 7 6 7 8 7 8 9 11 13 13 12 9 7
7 6 5 5 3 2 3 3 3 4 4 4 4 4 6 7 7 8 7 7 7 7 6 6 7 8 8 7 8 10 6 6 6 6 6 8 10 10 10 13 16 15 16
8 7 7 7 5 5 5 4 4 4 3 3 2 1 2 4 5 5 5 4 4 5 5 5 6 6 7 9 9 10 7 7 7 7 7 8 9 10 8 8 9 11 12
11 10 10 10 10 9 8 7 7 7 7 6 5 5 3 1 2 2 3 3 3 3 3 3 4 5 6 7 9 9 6 7 8 8 9 10 9 12 13 10 10 10 9
11 11 12 13 12 10 10 10 9 9 8 7 7 7 7 6 4 3 2 1 1 2 3 4 4 5 5 5 8 10 6 7 7 7 9 13 12 12 12 10 10 12 11
12 12 12 12 12 11 11 11 11 10 8 7 7 7 7 5 5 4 3 2 1 1 2 3 4 4 4 5 7 10 6 6 6 6 6 5 6 8 9 9 9 13 11
12 12 11 11 11 11 11 11 11 9 9 8 8 7 7 5 5 4 3 3 2 3 3 3 4 3 3 2 3 7 9 7 6 6 6 5 7 9 10 10 12 15 12
11 11 11 11 10 10 10 10 8 7 8 8 7 6 5 4 4 3 3 2 2 2 3 3 3 3 2 2 3 1 5 8 7 7 10 11 13 13 10 13 15 12 9
10 10 10 10 9 9 9 8 7 6 6 5 4 3 3 3 3 3 3 3 3 3 3 4 4 4 4 4 4 4 4 6 6 6 9 12 14 13 14 13 11 9 10
9 9 9 8 8 8 8 8 7 7 6 5 4 3 3 2 2 1 1 1 1 0 1 2 3 3 3 3 3 4 4 5 5 7 7 8 8 8 7 7 7 7 7
9 8 8 8 7 7 7 6 6 7 7 6 6 5 4 3 3 2 2 1 3 4 5 5 4 2 2 3 5 6 8 9 8 5 7 9 9 9 9 8 8 7 7
Wind_Direction
180 166 165 166 161 164 158 154 150 147 146 145 153 151 155 159 136 133 137 143 128 104 10 83 112 56 78 52 34 4 302 222 21 308 251 187 184 150 129 101 11 56 147
177 169 170 170 170 168 160 156 156 158 160 156 160 159 153 171 150 131 142 154 149 163 153 82 138 77 106 80 44 32 334 347 85 327 307 187 138 259 129 141 139 45 15
178 177 176 172 173 169 166 166 161 162 164 159 164 159 146 193 147 136 159 169 160 154 75 94 53 26 127 115 54 15 13 350 349 56 4 5 41 185 130 120 98 91 27
176 174 177 175 176 174 170 163 161 162 162 169 175 173 177 191 171 161 160 167 174 171 151 152 108 355 45 106 99 82 338 325 331 121 111 91 66 343 33 209 133 163 147
174 174 180 180 178 175 171 164 163 165 164 177 180 182 187 190 167 156 148 167 174 183 172 161 157 184 107 96 71 72 8 351 7 355 1 63 220 246 245 195 200 212 155
172 172 176 175 176 175 170 162 164 168 170 183 182 191 203 192 161 158 158 181 172 182 181 171 168 190 180 130 123 92 96 55 28 351 340 344 345 340 346 339 295 212 155
168 168 171 173 175 174 170 165 168 173 178 186 185 189 198 194 177 178 176 195 183 179 175 173 165 191 169 158 161 180 318 43 41 323 325 351 344 0 1 345 334 339 250
166 166 169 171 175 174 172 170 171 176 182 186 188 184 188 195 197 201 197 199 210 175 157 157 165 189 189 190 172 221 203 176 216 271 318 317 304 349 332 326 337 325 312
165 165 166 170 173 175 174 174 173 178 185 187 184 187 192 207 208 177 200 204 189 152 151 160 171 184 195 201 175 228 239 168 207 251 216 231 280 254 275 314 322 316 318
165 164 166 171 174 177 177 176 176 181 185 185 186 190 193 199 202 188 198 211 180 158 154 167 177 185 185 191 206 232 211 202 220 237 249 248 291 310 279 261 276 283 289
167 165 166 169 173 176 176 178 178 181 186 192 193 191 186 193 195 199 201 197 181 166 169 179 185 189 191 191 198 232 227 205 220 237 230 216 236 279 311 300 271 255 254
164 163 165 168 173 177 178 181 184 186 189 192 189 192 190 190 194 198 197 189 188 185 184 189 193 200 201 195 197 217 231 217 217 226 235 232 232 216 235 267 280 272 257
159 158 161 168 175 178 180 183 189 191 191 191 192 192 197 197 197 197 193 190 189 194 195 194 199 207 208 199 202 210 228 233 227 226 227 228 234 237 232 239 254 268 271
145 152 156 164 172 176 177 181 187 190 193 192 193 194 197 199 199 198 194 191 191 198 205 199 201 204 211 211 207 209 217 228 235 235 234 233 230 230 227 237 239 245 259
131 135 141 150 161 168 173 179 182 184 190 189 191 195 195 196 198 200 198 194 195 202 206 208 206 207 212 217 211 212 218 217 227 235 236 237 235 236 232 238 236 239 240
106 106 112 120 130 153 164 166 171 174 172 178 184 185 187 190 195 198 197 194 197 203 200 207 213 215 223 221 213 208 226 223 224 230 233 239 238 233 229 234 239 238 243
73 65 57 57 73 113 132 140 145 143 144 157 170 173 176 185 189 197 196 198 197 201 211 210 216 218 224 223 207 209 221 242 250 251 248 253 254 240 227 227 232 239 240
62 61 64 63 55 55 66 65 69 77 91 106 108 114 159 189 188 185 184 190 191 202 213 223 231 234 231 213 209 210 222 240 248 252 255 254 258 264 257 246 237 230 233
62 57 59 59 56 56 61 70 60 59 58 56 51 41 38 52 147 175 186 179 183 197 212 226 239 244 246 223 212 206 229 242 249 253 255 254 254 254 254 255 255 251 246
63 59 61 61 55 52 60 65 61 59 55 48 54 51 47 39 40 43 41 34 234 230 241 243 240 246 251 231 214 205 232 247 253 254 253 253 254 260 258 252 253 254 253
71 66 63 59 52 47 53 57 54 49 49 52 54 53 52 52 51 38 18 10 351 310 278 273 268 261 254 243 215 204 226 251 263 268 271 271 276 269 269 260 256 258 262
78 73 67 62 54 51 56 57 50 43 42 42 46 46 44 39 39 37 12 354 347 317 295 286 283 279 280 275 220 208 226 258 272 277 281 293 325 313 293 275 264 264 266
82 79 77 71 62 56 57 57 47 43 45 43 36 32 37 41 30 16 0 341 338 330 330 331 325 326 340 358 14 305 269 268 268 279 291 303 303 299 287 268 262 261 258
83 81 77 73 65 59 60 59 52 47 48 45 34 22 29 33 30 5 360 359 357 2 355 342 336 337 350 17 18 356 326 306 292 296 304 304 289 278 270 271 264 248 245
80 77 76 76 73 64 56 49 40 31 27 19 8 359 12 23 348 332 325 323 338 265 277 317 326 331 334 345 349 337 325 322 320 318 299 289 285 280 275 272 267 260 252
81 77 75 73 73 69 63 51 38 26 15 8 358 351 354 1 348 334 330 285 255 223 222 236 256 290 286 295 306 304 296 292 294 295 285 285 284 285 286 285 284 281 275